QPF
0.05 0.04 0.04 0.04 0.04 0.05 0.05 0.05 0.06 0.08 0.09 0.09 0.09 0.09 0.07 0.05 0.05 0.04 0.03 0.03 0.02 0.01 0.01 0.01 0.01 0.02 0.04 0.04 0.03 0.04 0.05 0.05 0.06 0.06 0.05 0.05 0.05 0.04
0.04 0.03 0.04 0.03 0.04 0.04 0.05 0.05 0.06 0.07 0.06 0.06 0.08 0.10 0.09 0.08 0.05 0.05 0.05 0.06 0.03 0.02 0.01 0.01 0.02 0.02 0.03 0.04 0.04 0.04 0.04 0.04 0.04 0.04 0.04 0.04 0.04 0.04
0.03 0.03 0.04 0.04 0.05 0.05 0.05 0.04 0.05 0.06 0.07 0.07 0.08 0.09 0.09 0.09 0.09 0.08 0.07 0.07 0.05 0.03 0.02 0.02 0.02 0.02 0.03 0.04 0.04 0.03 0.03 0.03 0.03 0.03 0.03 0.03 0.03 0.03
0.02 0.02 0.03 0.03 0.05 0.06 0.06 0.07 0.07 0.08 0.08 0.08 0.08 0.08 0.08 0.09 0.10 0.10 0.09 0.06 0.05 0.04 0.03 0.03 0.02 0.02 0.02 0.03 0.03 0.03 0.03 0.03 0.02 0.02 0.02 0.02 0.02 0.02
0.02 0.02 0.02 0.03 0.04 0.06 0.07 0.08 0.09 0.09 0.11 0.12 0.10 0.08 0.07 0.07 0.09 0.10 0.10 0.08 0.05 0.03 0.03 0.03 0.02 0.01 0.01 0.02 0.02 0.02 0.03 0.02 0.01 0.01 0.01 0.01 0.02 0.02
0.01 0.01 0.02 0.02 0.03 0.04 0.05 0.08 0.10 0.10 0.11 0.11 0.10 0.08 0.07 0.07 0.08 0.09 0.08 0.07 0.07 0.05 0.03 0.02 0.02 0.01 0.01 0.01 0.01 0.01 0.01 0.01 0.01 0.01 0.01 0.01 0.01 0.02
0.02 0.01 0.01 0.01 0.01 0.02 0.02 0.04 0.07 0.09 0.08 0.09 0.09 0.09 0.09 0.11 0.11 0.08 0.06 0.07 0.07 0.07 0.06 0.04 0.03 0.03 0.03 0.02 0.02 0.01 0.01 0.01 0.01 0.01 0.01 0.01 0.01 0.02
0.02 0.02 0.01 0.01 0.01 0.01 0.02 0.02 0.03 0.05 0.07 0.07 0.08 0.09 0.11 0.13 0.13 0.11 0.09 0.09 0.08 0.08 0.08 0.07 0.05 0.05 0.04 0.03 0.02 0.02 0.01 0.01 0.01 0.01 0.01 0.01 0.01 0.02
0.03 0.03 0.02 0.01 0.01 0.02 0.03 0.03 0.03 0.03 0.04 0.05 0.06 0.07 0.10 0.11 0.12 0.11 0.10 0.09 0.08 0.07 0.08 0.07 0.05 0.05 0.04 0.03 0.02 0.02 0.01 0.01 0.01 0.01 0.01 0.01 0.01 0.01
0.03 0.03 0.03 0.02 0.02 0.03 0.04 0.05 0.04 0.04 0.04 0.04 0.05 0.06 0.07 0.08 0.09 0.08 0.07 0.06 0.06 0.04 0.05 0.06 0.06 0.06 0.05 0.04 0.04 0.03 0.02 0.01 0.00 0.00 0.01 0.01 0.01 0.01
0.03 0.02 0.03 0.03 0.02 0.02 0.03 0.05 0.05 0.05 0.03 0.03 0.03 0.03 0.03 0.04 0.05 0.06 0.07 0.06 0.06 0.06 0.05 0.04 0.05 0.06 0.07 0.05 0.03 0.03 0.02 0.02 0.01 0.00 0.00 0.00 0.01 0.01
0.03 0.03 0.02 0.02 0.01 0.01 0.02 0.04 0.04 0.05 0.04 0.03 0.03 0.03 0.02 0.02 0.03 0.05 0.06 0.06 0.05 0.05 0.05 0.04 0.04 0.06 0.07 0.06 0.04 0.04 0.03 0.02 0.02 0.01 0.00 0.00 0.01 0.01
0.03 0.03 0.02 0.01 0.01 0.01 0.01 0.03 0.03 0.03 0.04 0.04 0.04 0.03 0.03 0.03 0.03 0.04 0.05 0.05 0.03 0.03 0.04 0.04 0.04 0.05 0.06 0.06 0.06 0.05 0.05 0.03 0.02 0.01 0.01 0.00 0.01 0.01
0.01 0.02 0.02 0.01 0.01 0.00 0.00 0.01 0.01 0.02 0.03 0.04 0.04 0.03 0.02 0.02 0.02 0.03 0.04 0.04 0.03 0.02 0.03 0.05 0.04 0.04 0.05 0.05 0.06 0.06 0.06 0.05 0.04 0.03 0.01 0.01 0.01 0.01
0.01 0.02 0.02 0.01 0.01 0.01 0.00 0.00 0.01 0.02 0.03 0.04 0.04 0.03 0.02 0.01 0.02 0.03 0.04 0.05 0.03 0.02 0.02 0.04 0.05 0.04 0.05 0.05 0.06 0.07 0.07 0.06 0.06 0.05 0.03 0.02 0.02 0.02
0.02 0.02 0.02 0.01 0.01 0.01 0.01 0.01 0.02 0.02 0.03 0.03 0.03 0.03 0.03 0.02 0.02 0.03 0.04 0.05 0.04 0.02 0.02 0.03 0.04 0.04 0.05 0.05 0.05 0.06 0.07 0.07 0.07 0.06 0.05 0.04 0.03 0.03
0.02 0.02 0.02 0.02 0.01 0.01 0.02 0.02 0.02 0.02 0.03 0.03 0.03 0.03 0.03 0.03 0.02 0.03 0.04 0.04 0.03 0.03 0.03 0.03 0.04 0.04 0.04 0.05 0.05 0.06 0.06 0.08 0.08 0.06 0.06 0.05 0.05 0.03
0.01 0.01 0.02 0.02 0.02 0.02 0.02 0.03 0.02 0.02 0.03 0.03 0.03 0.03 0.03 0.03 0.03 0.03 0.04 0.05 0.04 0.03 0.03 0.02 0.03 0.04 0.05 0.05 0.05 0.05 0.06 0.07 0.06 0.06 0.06 0.06 0.06 0.04
0.01 0.02 0.02 0.02 0.02 0.02 0.02 0.02 0.01 0.02 0.02 0.03 0.04 0.04 0.03 0.03 0.04 0.04 0.05 0.05 0.05 0.04 0.03 0.03 0.03 0.03 0.04 0.05 0.06 0.04 0.04 0.06 0.06 0.06 0.06 0.06 0.06 0.05
0.01 0.01 0.01 0.01 0.01 0.01 0.01 0.01 0.01 0.01 0.02 0.03 0.03 0.03 0.04 0.04 0.04 0.05 0.06 0.06 0.07 0.06 0.05 0.05 0.04 0.04 0.04 0.05 0.06 0.05 0.04 0.05 0.05 0.06 0.06 0.06 0.05 0.05
0.00 0.00 0.00 0.00 0.01 0.01 0.01 0.01 0.01 0.02 0.02 0.02 0.02 0.03 0.05 0.05 0.05 0.05 0.06 0.06 0.07 0.06 0.06 0.05 0.05 0.04 0.03 0.04 0.04 0.05 0.05 0.06 0.06 0.05 0.05 0.05 0.05 0.05
0.00 0.00 0.00 0.00 0.00 0.01 0.01 0.01 0.01 0.01 0.02 0.02 0.03 0.03 0.04 0.05 0.06 0.05 0.05 0.06 0.06 0.05 0.05 0.05 0.04 0.03 0.03 0.03 0.03 0.04 0.06 0.07 0.07 0.06 0.05 0.05 0.05 0.05
0.01 0.01 0.01 0.01 0.01 0.01 0.01 0.01 0.02 0.02 0.02 0.02 0.02 0.02 0.03 0.05 0.05 0.04 0.04 0.04 0.04 0.04 0.04 0.04 0.04 0.03 0.02 0.02 0.02 0.03 0.04 0.05 0.06 0.06 0.05 0.05 0.05 0.04
MSLP
1008.41 1008.48 1008.57 1008.67 1008.74 1008.75 1008.68 1008.52 1008.28 1007.96 1007.60 1007.22 1006.87 1006.54 1006.27 1006.05 1005.88 1005.74 1005.63 1005.52 1005.42 1005.32 1005.21 1005.11 1005.01 1004.93 1004.86 1004.82 1004.78 1004.76 1004.74 1004.74 1004.76 1004.80 1004.89 1005.04 1005.26 1005.58
1008.27 1008.29 1008.33 1008.39 1008.43 1008.43 1008.35 1008.20 1007.96 1007.65 1007.30 1006.92 1006.54 1006.18 1005.86 1005.59 1005.34 1005.13 1004.94 1004.75 1004.57 1004.39 1004.22 1004.07 1003.94 1003.84 1003.78 1003.74 1003.74 1003.76 1003.79 1003.82 1003.87 1003.93 1004.02 1004.15 1004.35 1004.64
1008.13 1008.08 1008.07 1008.07 1008.07 1008.04 1007.96 1007.81 1007.58 1007.28 1006.93 1006.55 1006.16 1005.78 1005.42 1005.09 1004.79 1004.51 1004.24 1003.97 1003.71 1003.45 1003.20 1002.98 1002.79 1002.65 1002.56 1002.52 1002.53 1002.57 1002.64 1002.72 1002.80 1002.89 1003.00 1003.14 1003.33 1003.60
1007.99 1007.88 1007.80 1007.75 1007.71 1007.65 1007.56 1007.40 1007.18 1006.89 1006.54 1006.16 1005.76 1005.36 1004.97 1004.60 1004.24 1003.90 1003.56 1003.21 1002.87 1002.52 1002.18 1001.87 1001.60 1001.39 1001.25 1001.17 1001.17 1001.22 1001.30 1001.42 1001.54 1001.67 1001.81 1001.98 1002.19 1002.47
1007.87 1007.69 1007.55 1007.45 1007.36 1007.28 1007.16 1006.99 1006.76 1006.47 1006.12 1005.73 1005.32 1004.90 1004.48 1004.08 1003.69 1003.30 1002.90 1002.49 1002.07 1001.64 1001.21 1000.80 1000.43 1000.13 999.90 999.76 999.71 999.74 999.83 999.96 1000.12 1000.29 1000.48 1000.69 1000.95 1001.26
1007.73 1007.50 1007.31 1007.16 1007.03 1006.90 1006.75 1006.56 1006.31 1006.01 1005.64 1005.24 1004.81 1004.38 1003.95 1003.52 1003.11 1002.69 1002.26 1001.80 1001.32 1000.82 1000.30 999.79 999.31 998.90 998.57 998.34 998.22 998.21 998.28 998.42 998.61 998.83 999.07 999.35 999.66 1000.05
1007.57 1007.30 1007.06 1006.86 1006.68 1006.50 1006.31 1006.09 1005.81 1005.47 1005.08 1004.66 1004.21 1003.77 1003.33 1002.89 1002.47 1002.05 1001.60 1001.13 1000.61 1000.05 999.46 998.86 998.29 997.77 997.33 997.01 996.81 996.73 996.77 996.91 997.12 997.39 997.70 998.05 998.44 998.90
1007.36 1007.05 1006.77 1006.52 1006.29 1006.07 1005.82 1005.55 1005.22 1004.85 1004.43 1003.98 1003.52 1003.06 1002.61 1002.19 1001.78 1001.36 1000.93 1000.45 999.92 999.33 998.70 998.04 997.38 996.77 996.24 995.82 995.54 995.41 995.41 995.54 995.77 996.08 996.46 996.88 997.37 997.91
1007.09 1006.76 1006.44 1006.14 1005.86 1005.58 1005.28 1004.95 1004.58 1004.16 1003.70 1003.23 1002.74 1002.28 1001.84 1001.42 1001.03 1000.63 1000.22 999.77 999.25 998.67 998.02 997.33 996.62 995.94 995.34 994.85 994.50 994.31 994.28 994.40 994.65 995.00 995.43 995.94 996.51 997.14
1006.77 1006.42 1006.06 1005.73 1005.40 1005.06 1004.71 1004.33 1003.91 1003.45 1002.96 1002.46 1001.96 1001.48 1001.04 1000.64 1000.26 999.89 999.51 999.09 998.61 998.04 997.41 996.71 995.99 995.28 994.64 994.10 993.71 993.48 993.42 993.53 993.79 994.18 994.67 995.25 995.90 996.61
1006.44 1006.06 1005.68 1005.30 1004.93 1004.55 1004.16 1003.74 1003.28 1002.79 1002.28 1001.75 1001.24 1000.75 1000.30 999.90 999.53 999.18 998.82 998.43 997.98 997.45 996.84 996.17 995.47 994.77 994.12 993.57 993.15 992.90 992.83 992.93 993.20 993.61 994.14 994.78 995.50 996.29
1006.12 1005.71 1005.30 1004.89 1004.49 1004.08 1003.66 1003.22 1002.75 1002.25 1001.72 1001.18 1000.65 1000.15 999.68 999.26 998.88 998.53 998.17 997.79 997.37 996.88 996.31 995.69 995.03 994.37 993.74 993.20 992.79 992.53 992.45 992.54 992.81 993.23 993.80 994.48 995.25 996.10
1005.83 1005.40 1004.96 1004.52 1004.09 1003.67 1003.25 1002.80 1002.34 1001.84 1001.32 1000.78 1000.24 999.72 999.22 998.77 998.35 997.96 997.58 997.20 996.78 996.32 995.80 995.23 994.63 994.03 993.45 992.95 992.56 992.30 992.22 992.30 992.57 992.99 993.56 994.26 995.07 995.96
1005.58 1005.11 1004.64 1004.18 1003.75 1003.33 1002.91 1002.49 1002.05 1001.58 1001.08 1000.55 1000.00 999.46 998.92 998.41 997.93 997.49 997.06 996.65 996.22 995.77 995.29 994.78 994.25 993.72 993.21 992.77 992.41 992.18 992.10 992.18 992.42 992.83 993.39 994.10 994.92 995.84
1005.37 1004.86 1004.35 1003.88 1003.43 1003.02 1002.64 1002.26 1001.86 1001.44 1000.97 1000.46 999.91 999.34 998.76 998.19 997.63 997.11 996.61 996.15 995.70 995.26 994.81 994.36 993.90 993.45 993.03 992.65 992.35 992.14 992.07 992.14 992.37 992.75 993.29 993.97 994.79 995.72
1005.17 1004.61 1004.08 1003.58 1003.14 1002.75 1002.40 1002.07 1001.73 1001.36 1000.94 1000.46 999.91 999.32 998.69 998.05 997.42 996.81 996.25 995.72 995.24 994.80 994.38 993.98 993.61 993.25 992.91 992.61 992.38 992.22 992.16 992.23 992.43 992.78 993.29 993.95 994.74 995.66
1004.98 1004.38 1003.81 1003.31 1002.87 1002.50 1002.19 1001.91 1001.62 1001.31 1000.93 1000.49 999.95 999.34 998.68 997.98 997.28 996.60 995.96 995.38 994.88 994.43 994.05 993.72 993.42 993.16 992.92 992.72 992.55 992.44 992.41 992.49 992.68 993.00 993.47 994.09 994.85 995.74
1004.81 1004.18 1003.59 1003.07 1002.63 1002.29 1002.01 1001.77 1001.53 1001.27 1000.93 1000.51 1000.00 999.38 998.69 997.95 997.20 996.46 995.78 995.17 994.65 994.22 993.88 993.62 993.41 993.25 993.11 993.00 992.92 992.88 992.89 992.98 993.17 993.48 993.92 994.50 995.22 996.08
1004.68 1004.03 1003.43 1002.91 1002.48 1002.15 1001.89 1001.68 1001.47 1001.24 1000.93 1000.54 1000.03 999.42 998.72 997.96 997.18 996.42 995.72 995.10 994.60 994.20 993.92 993.73 993.61 993.54 993.51 993.50 993.51 993.54 993.61 993.73 993.94 994.24 994.66 995.22 995.91 996.72
1004.63 1003.99 1003.40 1002.89 1002.46 1002.13 1001.88 1001.68 1001.48 1001.25 1000.96 1000.57 1000.07 999.47 998.77 998.01 997.24 996.48 995.80 995.20 994.73 994.39 994.17 994.06 994.03 994.06 994.13 994.22 994.32 994.43 994.56 994.73 994.96 995.27 995.69 996.23 996.90 997.67
1004.69 1004.09 1003.52 1003.03 1002.61 1002.29 1002.02 1001.80 1001.59 1001.35 1001.04 1000.64 1000.14 999.54 998.85 998.12 997.37 996.66 996.01 995.47 995.05 994.78 994.63 994.60 994.66 994.78 994.94 995.12 995.30 995.49 995.68 995.90 996.18 996.52 996.95 997.49 998.14 998.89
1004.87 1004.33 1003.81 1003.35 1002.95 1002.61 1002.33 1002.07 1001.81 1001.53 1001.19 1000.76 1000.25 999.65 998.99 998.29 997.59 996.93 996.35 995.88 995.54 995.34 995.27 995.32 995.45 995.65 995.89 996.14 996.39 996.65 996.90 997.18 997.50 997.88 998.34 998.89 999.53 1000.26
1005.16 1004.70 1004.25 1003.83 1003.44 1003.09 1002.77 1002.47 1002.15 1001.81 1001.41 1000.94 1000.41 999.81 999.17 998.51 997.88 997.29 996.79 996.41 996.16 996.04 996.04 996.16 996.36 996.62 996.91 997.22 997.53 997.84 998.15 998.49 998.85 999.27 999.76 1000.33 1000.97 1001.69
Thickness
5647 5645 5644 5644 5643 5642 5641 5639 5633 5630 5633 5638 5641 5645 5647 5648 5647 5646 5646 5646 5644 5644 5644 5643 5643 5643 5644 5645 5645 5646 5647 5647 5648 5649 5650 5651 5652 5652
5644 5641 5640 5639 5639 5638 5636 5635 5632 5629 5628 5633 5635 5639 5640 5641 5641 5640 5640 5640 5639 5638 5638 5637 5637 5638 5638 5640 5640 5641 5641 5642 5642 5643 5644 5645 5646 5647
5640 5637 5635 5634 5632 5632 5631 5630 5628 5626 5623 5626 5630 5632 5633 5633 5634 5634 5634 5634 5633 5633 5632 5632 5632 5632 5633 5633 5634 5634 5635 5636 5636 5637 5638 5639 5640 5641
5635 5633 5630 5629 5627 5626 5624 5623 5622 5622 5619 5619 5622 5625 5626 5627 5628 5628 5628 5629 5628 5627 5627 5627 5626 5626 5627 5627 5626 5627 5628 5629 5630 5631 5632 5633 5634 5634
5632 5628 5626 5623 5621 5620 5619 5618 5617 5617 5616 5615 5615 5618 5620 5622 5621 5621 5621 5621 5623 5622 5621 5621 5620 5620 5620 5620 5620 5620 5621 5623 5623 5624 5625 5626 5627 5628
5628 5625 5622 5619 5616 5614 5613 5611 5611 5610 5610 5609 5610 5612 5613 5614 5613 5612 5611 5612 5613 5614 5614 5613 5613 5613 5614 5613 5613 5614 5614 5615 5616 5617 5618 5619 5620 5622
5623 5621 5618 5615 5612 5609 5608 5606 5605 5604 5603 5603 5603 5604 5604 5604 5603 5604 5603 5603 5605 5606 5606 5606 5606 5606 5606 5605 5606 5606 5607 5608 5609 5610 5611 5612 5613 5615
5617 5615 5614 5610 5608 5606 5603 5602 5600 5599 5598 5596 5596 5596 5596 5596 5596 5596 5594 5594 5594 5599 5598 5598 5599 5599 5600 5600 5601 5602 5602 5602 5603 5604 5605 5606 5607 5608
5612 5610 5609 5608 5604 5602 5600 5599 5597 5596 5594 5592 5591 5590 5590 5590 5589 5588 5587 5587 5588 5590 5589 5590 5592 5593 5595 5597 5597 5597 5597 5597 5597 5598 5599 5600 5601 5602
5610 5607 5605 5602 5600 5597 5596 5595 5593 5593 5591 5589 5587 5586 5586 5585 5584 5583 5582 5583 5585 5585 5585 5583 5585 5586 5590 5591 5592 5592 5592 5592 5592 5592 5592 5594 5595 5596
5609 5606 5603 5599 5595 5593 5591 5590 5589 5588 5588 5586 5585 5584 5583 5582 5580 5577 5576 5576 5576 5579 5580 5578 5580 5581 5583 5585 5586 5586 5586 5586 5586 5586 5587 5588 5589 5590
5606 5603 5599 5595 5591 5588 5587 5585 5584 5583 5583 5582 5581 5580 5580 5579 5577 5574 5573 5571 5571 5572 5576 5574 5574 5574 5576 5579 5580 5580 5579 5580 5580 5581 5582 5583 5584 5584
5602 5600 5596 5592 5588 5585 5583 5582 5581 5580 5579 5578 5578 5577 5577 5576 5575 5574 5572 5570 5568 5568 5571 5571 5570 5569 5568 5571 5573 5574 5574 5575 5575 5576 5577 5578 5578 5579
5598 5597 5594 5589 5586 5583 5581 5580 5579 5577 5576 5575 5574 5573 5573 5572 5573 5572 5571 5570 5569 5567 5568 5567 5565 5564 5563 5564 5567 5568 5569 5570 5570 5571 5572 5573 5573 5574
5595 5593 5590 5587 5584 5582 5581 5579 5577 5575 5574 5572 5571 5571 5571 5572 5571 5570 5569 5568 5567 5567 5566 5564 5562 5561 5559 5559 5560 5561 5562 5563 5564 5565 5567 5568 5570 5570
5592 5590 5589 5587 5584 5582 5581 5579 5577 5575 5573 5571 5570 5571 5571 5570 5568 5567 5566 5564 5563 5562 5563 5561 5559 5557 5555 5555 5554 5555 5556 5557 5559 5560 5561 5563 5566 5566
5587 5588 5588 5587 5585 5583 5581 5579 5578 5575 5572 5571 5569 5569 5568 5567 5565 5564 5562 5561 5559 5557 5557 5557 5556 5554 5552 5550 5549 5550 5551 5552 5553 5553 5553 5555 5558 5560
5585 5587 5586 5585 5584 5582 5580 5578 5577 5575 5573 5571 5569 5567 5565 5563 5562 5561 5559 5556 5555 5554 5553 5552 5551 5549 5547 5547 5546 5545 5545 5546 5547 5548 5548 5548 5551 5554
5585 5586 5585 5583 5581 5580 5578 5576 5575 5574 5573 5570 5567 5565 5563 5561 5559 5557 5555 5554 5552 5551 5550 5549 5547 5544 5541 5540 5543 5542 5540 5541 5542 5542 5543 5543 5545 5547
5587 5586 5584 5582 5580 5578 5576 5574 5573 5572 5570 5567 5565 5562 5560 5558 5556 5555 5553 5551 5550 5549 5548 5547 5544 5542 5538 5537 5537 5538 5537 5536 5536 5537 5538 5538 5539 5541
5588 5586 5584 5581 5579 5576 5574 5572 5570 5567 5565 5563 5561 5558 5557 5555 5554 5553 5551 5549 5547 5546 5545 5544 5543 5542 5538 5535 5533 5533 5533 5533 5534 5534 5534 5534 5534 5536
5586 5585 5583 5580 5577 5575 5571 5569 5567 5563 5561 5559 5557 5555 5555 5553 5551 5550 5549 5547 5545 5544 5543 5542 5541 5538 5535 5532 5531 5530 5530 5530 5531 5531 5531 5532 5531 5532
5586 5584 5581 5579 5575 5572 5569 5566 5563 5560 5557 5555 5553 5552 5551 5550 5549 5547 5546 5545 5543 5542 5541 5539 5537 5535 5532 5530 5529 5528 5527 5527 5527 5527 5528 5529 5529 5529